SCP
0 0 0 0 0 0 0 0 0 0 0 0 0 0 0 0 0 0 0 0 0 0 -0 0 0 0 0 -0 -0 -0 0 0 -0 -0 -0 0 0 0 0 0 0 0 -0
0 0 0 0 0 0 0 0 0 0 0 0 0 0 0 0 0 0 0 0 0 0 0 0 0 0 0 0 0 -0 -0 -0 -0 -0 0 0 0 0 0 0 0 0 -0
0 0 0 0 0 0 0 0 0 0 0 0 0 0 0 0 0 0 0 0 0 0 0 0 0 0 -0 -0 -0 -0 -0 -0 -0 -0 0 0 0 0 0 0 0 0 0
0 0 0 0 0 0 0 0 0 0 0 0 0 0 0 0 0 0 0 0 0 0 0 0 0 0 0 -0 0 0 -0 -0 -0 -0 0 0 0 0 0 0 0 0 -0
0 0 0 0 0 0 0 0 0 0 0 0 0 0 0 0 0 0 0 0 0 0 0 0 0 -0 -0 0 -0 -0 -0 -0 -0 -0 0 0 0 0 0 0 0 -0 -0
0 0 0 0 0 0 0 0 0 -0 0 0 0 0 0 0 0 0 0 0 0 0 0 0 0 0 0 0 -0 0 0 -0 0 -0 -0 0 0 0 0 0 0 -0 0
0 0 0 0 0 0 0 0 0 0 -0 0 0 0 0 0 0 0 0 0 0 0 0 0 0 0 0 0 0 0 0 0 -0 -0 0 0 0 0 0 0 -0 -0 0
0 0 0 0 0 0 0 0 0 -0 -0 0 0 0 0 0 0 0 0 0 0 0 0 0 0 0 0 0 0 0 0 -0 -0 -0 0 0 0 0 0 0 -0 0 0
0 0 0 0 0 0 0 0 0 0 0 0 0 0 0 0 0 0 0 0 0 0 0 0 0 0 0 0 0 0 -0 -0 -0 0 0 0 0 0 0 -0 -0 0 0
0 0 0 0 0 0 0 0 0 0 0 0 0 0 0 0 0 0 0 0 0 0 0 0 0 0 0 0 0 -0 -0 -0 0 0 0 0 0 0 -0 -0 0 0 0
0 0 0 0 0 0 0 0 0 0 0 0 0 0 0 0 0 0 0 0 0 0 0 0 0 0 0 0 0 0 0 0 0 0 0 0 0 0 -0 0 0 0 -0
0 0 0 0 0 0 0 0 0 0 0 0 0 -0 0 0 0 0 0 0 0 0 0 0 0 0 0 0 0 0 0 0 0 0 -0 -0 0 -0 -0 -0 -0 -0 -0
0 0 0 0 0 0 0 0 -0 -0 -0 0 0 -0 0 0 0 0 0 0 0 0 0 0 0 0 0 0 0 0 0 0 0 -0 -0 -0 -0 -0 -0 -0 -0 -0 -0
0 -0 0 0 0 0 0 0 0 -0 -0 0 0 0 0 0 0 0 0 0 0 0 0 0 0 0 0 0 0 -0 0 0 -0 -0 -0 -0 -0 -0 -0 -0 -0 -0 0
0 0 -0 0 0 0 0 -0 0 0 0 0 0 0 0 0 0 0 0 0 0 0 0 0 0 0 0 0 0 0 0 0 -0 -0 -0 -0 -0 -0 -0 0 -0 -0 -0
0 0 0 0 0 0 0 0 -0 -0 0 0 0 0 0 0 0 0 0 0 0 0 0 0 0 0 0 0 0 0 -0 -0 -0 -0 -0 -0 -0 -0 -0 -0 -0 -0 -0
0 -0 0 0 0 -0 -0 0 0 -0 -0 0 0 0 0 0 0 0 0 0 0 0 0 0 0 0 0 0 0 0 0 0 -0 -0 -0 -0 -0 -0 -0 -0 -0 -0 0
0 0 0 0 0 0 -0 0 0 -0 -0 -0 0 0 0 0 0 0 0 0 0 0 0 0 0 0 0 0 0 0 0 0 0 -0 -0 -0 -0 -0 -0 -0 -0 -0 0
-0 0 0 0 -0 0 -0 0 0 -0 0 0 -0 0 0 0 0 0 0 0 0 0 0 0 0 0 0 0 0 0 0 0 0 -0 -0 -0 -0 -0 -0 -0 -0 -0 0
-0 0 0 0 0 0 -0 -0 0 0 0 -0 0 0 0 0 0 0 0 0 0 0 0 0 0 0 0 0 0 0 0 0 0 0 0 0 -0 -0 -0 -0 -0 0 0
-0 -0 0 0 -0 0 -0 0 -0 0 0 -0 0 0 0 0 0 0 0 0 0 0 0 0 0 0 0 0 0 0 0 0 0 0 0 0 0 -0 -0 -0 0 0 0
-0 -0 -0 0 -0 -0 -0 0 -0 -0 -0 -0 0 0 0 0 0 0 0 0 0 0 0 0 0 0 0 0 0 0 0 0 0 0 0 -0 -0 -0 0 0 0 0 0
0 0 0 0 -0 -0 -0 -0 0 -0 -0 -0 -0 0 0 0 0 0 0 -0 0 -0 0 0 0 0 0 0 0 0 0 0 0 0 0 -0 -0 -0 0 0 0 0 0
0 0 0 0 -0 -0 0 -0 0 0 -0 -0 -0 -0 0 0 0 0 0 0 0 0 0 0 0 0 0 0 0 0 0 0 0 0 0 0 0 0 0 0 0 0 0
0 0 0 0 0 0 -0 -0 -0 -0 -0 -0 -0 -0 0 0 0 -0 -0 -0 -0 0 -0 -0 -0 0 0 0 0 -0 0 0 0 0 0 0 0 0 0 0 0 0 0
0 0 0 0 0 0 0 0 0 0 0 0 0 0 0 0 -0 -0 -0 -0 -0 0 0 0 0 0 0 0 0 0 0 0 0 0 0 0 0 0 0 0 0 0 0
Wind_Speed_500mb
34 31 30 26 28 25 23 21 15 14 26 18 21 29 40 39 39 38 39 42 42 37 42 42 54 41 40 40 29 20 23 28 28 20 9 5 9 10 12 18 21 23 23
31 28 29 22 17 20 25 26 20 19 16 12 17 29 30 43 33 34 35 35 37 40 40 41 50 38 40 38 29 25 33 31 23 14 11 10 9 11 15 19 22 22 25
25 22 25 17 21 23 18 21 18 15 11 10 19 21 25 29 34 35 37 36 39 39 42 48 47 45 42 39 36 36 33 30 24 17 7 10 13 17 18 21 20 22 27
23 18 18 20 18 17 21 23 15 14 16 15 18 21 26 23 28 30 36 39 46 48 57 52 36 38 44 44 36 37 34 34 27 11 9 15 16 19 21 21 20 21 23
23 21 22 22 22 27 26 15 11 15 14 16 12 17 18 22 28 35 37 42 51 60 53 39 39 39 36 43 43 34 37 36 24 16 13 16 22 23 18 18 18 18 20
22 22 11 19 26 29 17 15 17 11 15 10 13 17 29 27 29 35 41 46 52 54 48 41 40 39 32 41 44 37 40 33 25 17 17 17 23 21 19 17 17 19 18
16 15 18 23 32 22 19 18 21 9 12 10 21 29 24 42 51 48 48 47 54 53 41 34 35 32 31 42 46 42 44 32 24 27 21 20 27 20 17 16 13 14 16
14 15 19 28 28 22 20 25 17 9 16 18 19 20 18 33 52 57 42 50 38 39 38 34 32 25 40 42 41 42 48 35 30 27 21 25 20 16 14 11 8 10 8
10 9 18 26 22 25 24 25 13 8 16 28 30 24 17 12 42 58 52 47 40 45 47 39 38 40 43 42 31 48 49 35 30 24 24 22 20 15 12 9 8 7 10
11 11 16 21 22 22 23 17 8 7 19 32 36 19 31 38 40 46 66 52 44 42 54 48 47 50 41 38 36 46 46 34 29 24 21 22 24 21 17 13 10 7 8
8 8 17 21 21 21 26 12 11 12 14 22 19 43 44 63 54 69 59 58 42 59 53 53 44 42 36 35 32 40 40 34 24 19 19 18 19 21 19 18 14 12 10
7 11 14 18 20 24 27 16 10 17 24 18 22 50 69 62 56 71 69 58 68 56 51 47 42 38 33 28 24 26 33 22 11 16 13 13 16 18 21 23 16 10 11
3 8 11 16 15 22 25 19 12 15 16 15 31 27 38 46 52 76 84 75 69 57 48 42 39 38 34 33 32 29 26 16 14 7 5 11 12 15 16 17 17 19 20
2 4 8 14 15 19 18 19 14 13 17 18 19 14 30 49 74 86 85 83 68 53 42 41 38 35 30 29 25 18 19 25 15 2 3 7 9 9 14 18 24 30 34
6 2 4 10 13 18 18 20 17 18 20 18 14 15 25 66 84 84 77 61 54 51 37 30 33 31 29 27 26 25 28 21 9 5 7 5 7 12 18 27 35 35 33
5 6 1 6 12 15 15 16 20 20 18 17 19 28 38 69 65 55 44 46 24 52 35 38 33 35 31 29 25 23 20 14 9 8 5 7 11 21 23 25 23 26 29
4 9 2 2 9 9 9 10 18 18 16 21 22 27 38 42 47 48 35 31 18 28 48 42 39 37 32 25 26 23 19 15 10 5 2 7 11 16 17 21 26 27 31
6 9 3 4 9 12 13 16 18 20 26 23 26 35 56 49 45 40 37 29 21 27 28 47 39 38 32 27 25 23 19 13 6 3 3 5 10 14 21 25 28 31 29
11 11 6 7 9 11 15 19 22 29 23 24 32 50 26 31 39 29 32 33 27 27 28 36 38 41 36 31 31 25 20 14 10 5 4 6 12 20 22 27 23 21 26
13 13 9 8 14 15 13 21 24 26 22 22 35 35 30 25 31 34 32 32 30 26 29 37 39 46 42 38 29 28 25 19 13 8 2 8 16 17 21 17 20 24 28
17 16 15 12 13 15 14 18 30 29 20 25 31 33 29 36 36 30 27 29 19 14 16 26 42 45 43 40 38 33 28 23 17 8 3 5 10 10 9 15 21 28 29
18 21 21 21 16 21 22 21 30 32 32 44 43 42 39 34 32 33 33 22 15 16 19 27 36 42 39 37 35 32 27 25 19 13 6 2 2 9 15 23 26 24 26
17 21 28 26 18 25 24 28 28 42 42 50 41 36 40 33 37 40 29 21 17 18 15 15 24 32 36 35 32 32 27 22 18 20 16 6 7 9 21 22 20 25 32
18 27 32 25 23 27 29 28 33 47 43 43 34 34 28 31 33 31 26 24 23 28 26 24 22 24 25 32 29 25 31 28 24 24 19 9 14 13 16 17 21 25 30
24 29 25 25 26 24 34 30 32 36 42 41 36 31 27 24 26 23 21 24 27 29 30 26 24 26 28 27 25 29 33 31 29 28 23 14 18 13 13 16 19 24 23
29 26 25 24 32 30 37 33 36 35 36 38 36 34 27 27 22 21 20 24 25 27 27 26 27 27 29 31 30 27 20 24 20 21 18 20 21 18 13 17 18 17 19
Wind_Direction_500mb
320 321 323 329 333 338 333 306 291 288 297 239 188 230 208 214 220 223 219 208 208 211 191 171 179 185 192 163 177 163 146 144 149 162 150 86 73 64 80 96 98 95 88
324 326 323 323 337 327 309 320 300 273 288 221 214 237 228 220 218 212 211 203 207 194 186 195 189 181 174 174 170 159 151 149 161 145 112 81 72 77 90 100 96 96 85
336 335 333 357 360 329 328 318 313 302 291 251 253 241 211 210 208 196 208 189 188 187 165 165 178 179 181 173 166 150 153 155 160 129 113 79 77 94 102 98 105 94 82
334 334 354 17 345 334 329 317 312 300 289 256 266 229 215 211 198 190 206 183 184 171 164 174 177 178 182 170 160 154 152 155 151 121 97 76 89 103 104 103 103 94 89
353 32 18 342 352 341 336 339 330 291 295 270 242 203 201 196 193 191 185 188 171 162 169 182 173 186 176 165 157 153 154 160 139 123 87 78 107 108 105 109 104 99 91
24 15 360 348 347 343 360 20 5 325 296 225 201 167 164 174 175 184 182 169 162 165 168 178 169 166 176 178 163 154 157 158 133 113 91 85 102 102 101 96 87 87 82
30 43 21 6 356 5 18 16 7 17 32 138 121 179 144 161 162 164 169 163 160 166 170 159 163 168 184 181 156 159 160 153 134 110 89 79 101 103 105 91 84 84 75
23 20 19 9 7 19 32 18 13 37 129 146 162 133 93 145 147 158 158 134 154 169 164 152 151 148 153 141 148 161 157 143 123 116 82 108 95 103 101 112 101 87 63
26 20 16 16 11 13 20 23 37 48 118 124 127 151 117 109 139 128 133 141 135 118 129 134 148 144 142 138 138 145 151 135 118 96 91 71 61 74 94 83 78 53 48
32 31 19 26 4 8 9 19 61 88 141 117 130 126 142 140 125 102 130 118 130 136 130 134 140 141 144 138 138 143 142 132 117 95 83 66 54 43 30 28 14 3 31
31 46 17 21 19 10 18 11 102 123 134 149 150 138 162 133 121 121 113 131 141 131 133 144 144 137 133 124 143 151 142 130 110 85 76 64 48 41 31 15 12 16 23
17 33 29 28 16 10 12 35 115 136 144 159 141 160 145 144 149 145 136 132 124 123 134 138 143 139 144 136 131 142 155 122 106 89 78 49 44 32 18 9 8 16 7
22 27 22 36 32 26 26 27 95 144 150 134 159 161 165 179 167 157 148 134 121 120 124 133 132 129 130 129 130 150 137 128 122 110 74 36 22 24 21 12 6 3 354
267 35 26 33 28 28 30 40 83 132 169 160 161 153 148 171 167 154 155 150 136 134 129 125 128 131 137 144 146 163 175 163 149 146 342 348 356 22 19 10 16 12 7
277 316 31 34 43 41 49 70 107 101 135 155 157 168 162 159 160 164 160 159 165 144 137 140 136 147 162 156 157 172 169 163 164 223 276 297 326 3 15 12 7 4 359
273 274 26 32 78 59 59 80 105 120 132 141 160 164 155 160 164 165 167 164 165 179 153 165 159 159 163 163 161 177 183 196 217 234 274 304 1 25 15 3 352 342 342
221 258 250 53 96 59 83 136 112 142 133 156 164 165 174 179 171 166 174 174 171 181 180 166 172 167 166 171 176 181 184 192 190 224 23 30 17 12 337 333 338 338 339
197 254 240 154 111 90 98 144 128 126 136 133 160 169 154 150 161 161 171 178 170 188 187 171 174 172 173 172 179 178 172 170 181 80 317 329 346 341 344 342 340 343 357
217 239 222 173 138 120 125 143 137 130 133 138 156 155 176 173 167 172 169 158 163 176 167 176 178 179 176 178 181 175 174 165 181 211 231 312 338 359 345 344 10 27 18
226 204 210 183 165 142 151 162 157 155 151 155 164 172 163 167 170 161 154 161 154 163 174 196 193 184 183 178 185 182 170 173 175 163 226 6 349 357 356 24 22 23 24
221 208 195 185 165 165 162 161 169 167 159 154 158 169 156 144 145 155 168 175 184 200 199 200 191 185 183 184 183 181 178 166 155 146 31 22 27 357 46 33 34 36 35
218 206 179 176 166 161 154 159 157 161 151 142 143 144 149 155 162 166 175 190 212 202 210 186 186 187 185 184 183 186 187 176 171 163 162 149 37 50 49 47 44 36 44
212 189 168 170 164 163 159 157 155 154 153 154 155 161 158 164 175 179 193 194 189 175 159 166 175 176 181 185 187 188 189 191 198 172 182 156 110 72 64 54 45 54 61
192 173 168 173 174 173 165 168 166 166 169 176 174 171 178 176 179 186 189 182 180 170 162 157 160 167 175 177 185 196 186 187 184 182 191 169 146 90 71 56 68 68 63
178 167 173 178 178 183 174 173 169 172 178 179 183 193 188 191 182 185 195 184 173 167 158 158 162 166 168 174 175 181 188 193 189 193 202 199 154 126 99 90 81 69 62
175 180 181 181 183 186 182 182 183 187 191 192 186 185 179 180 197 183 183 180 178 172 168 169 170 172 175 177 181 187 218 207 208 198 193 182 166 157 120 105 90 75 59
Wind_Speed_850mb
34 31 30 26 28 25 23 21 15 14 26 18 21 29 40 39 39 38 39 42 42 37 42 42 54 41 40 40 29 20 23 28 28 20 9 5 9 10 12 18 21 23 23
31 28 29 22 17 20 25 26 20 19 16 12 17 29 30 43 33 34 35 35 37 40 40 41 50 38 40 38 29 25 33 31 23 14 11 10 9 11 15 19 22 22 25
25 22 25 17 21 23 18 21 18 15 11 10 19 21 25 29 34 35 37 36 39 39 42 48 47 45 42 39 36 36 33 30 24 17 7 10 13 17 18 21 20 22 27
23 18 18 20 18 17 21 23 15 14 16 15 18 21 26 23 28 30 36 39 46 48 57 52 36 38 44 44 36 37 34 34 27 11 9 15 16 19 21 21 20 21 23
23 21 22 22 22 27 26 15 11 15 14 16 12 17 18 22 28 35 37 42 51 60 53 39 39 39 36 43 43 34 37 36 24 16 13 16 22 23 18 18 18 18 20
22 22 11 19 26 29 17 15 17 11 15 10 13 17 29 27 29 35 41 46 52 54 48 41 40 39 32 41 44 37 40 33 25 17 17 17 23 21 19 17 17 19 18
16 15 18 23 32 22 19 18 21 9 12 10 21 29 24 42 51 48 48 47 54 53 41 34 35 32 31 42 46 42 44 32 24 27 21 20 27 20 17 16 13 14 16
14 15 19 28 28 22 20 25 17 9 16 18 19 20 18 33 52 57 42 50 38 39 38 34 32 25 40 42 41 42 48 35 30 27 21 25 20 16 14 11 8 10 8
10 9 18 26 22 25 24 25 13 8 16 28 30 24 17 12 42 58 52 47 40 45 47 39 38 40 43 42 31 48 49 35 30 24 24 22 20 15 12 9 8 7 10
11 11 16 21 22 22 23 17 8 7 19 32 36 19 31 38 40 46 66 52 44 42 54 48 47 50 41 38 36 46 46 34 29 24 21 22 24 21 17 13 10 7 8
8 8 17 21 21 21 26 12 11 12 14 22 19 43 44 63 54 69 59 58 42 59 53 53 44 42 36 35 32 40 40 34 24 19 19 18 19 21 19 18 14 12 10
7 11 14 18 20 24 27 16 10 17 24 18 22 50 69 62 56 71 69 58 68 56 51 47 42 38 33 28 24 26 33 22 11 16 13 13 16 18 21 23 16 10 11
3 8 11 16 15 22 25 19 12 15 16 15 31 27 38 46 52 76 84 75 69 57 48 42 39 38 34 33 32 29 26 16 14 7 5 11 12 15 16 17 17 19 20
2 4 8 14 15 19 18 19 14 13 17 18 19 14 30 49 74 86 85 83 68 53 42 41 38 35 30 29 25 18 19 25 15 2 3 7 9 9 14 18 24 30 34
6 2 4 10 13 18 18 20 17 18 20 18 14 15 25 66 84 84 77 61 54 51 37 30 33 31 29 27 26 25 28 21 9 5 7 5 7 12 18 27 35 35 33
5 6 1 6 12 15 15 16 20 20 18 17 19 28 38 69 65 55 44 46 24 52 35 38 33 35 31 29 25 23 20 14 9 8 5 7 11 21 23 25 23 26 29
4 9 2 2 9 9 9 10 18 18 16 21 22 27 38 42 47 48 35 31 18 28 48 42 39 37 32 25 26 23 19 15 10 5 2 7 11 16 17 21 26 27 31
6 9 3 4 9 12 13 16 18 20 26 23 26 35 56 49 45 40 37 29 21 27 28 47 39 38 32 27 25 23 19 13 6 3 3 5 10 14 21 25 28 31 29
11 11 6 7 9 11 15 19 22 29 23 24 32 50 26 31 39 29 32 33 27 27 28 36 38 41 36 31 31 25 20 14 10 5 4 6 12 20 22 27 23 21 26
13 13 9 8 14 15 13 21 24 26 22 22 35 35 30 25 31 34 32 32 30 26 29 37 39 46 42 38 29 28 25 19 13 8 2 8 16 17 21 17 20 24 28
17 16 15 12 13 15 14 18 30 29 20 25 31 33 29 36 36 30 27 29 19 14 16 26 42 45 43 40 38 33 28 23 17 8 3 5 10 10 9 15 21 28 29
18 21 21 21 16 21 22 21 30 32 32 44 43 42 39 34 32 33 33 22 15 16 19 27 36 42 39 37 35 32 27 25 19 13 6 2 2 9 15 23 26 24 26
17 21 28 26 18 25 24 28 28 42 42 50 41 36 40 33 37 40 29 21 17 18 15 15 24 32 36 35 32 32 27 22 18 20 16 6 7 9 21 22 20 25 32
18 27 32 25 23 27 29 28 33 47 43 43 34 34 28 31 33 31 26 24 23 28 26 24 22 24 25 32 29 25 31 28 24 24 19 9 14 13 16 17 21 25 30
24 29 25 25 26 24 34 30 32 36 42 41 36 31 27 24 26 23 21 24 27 29 30 26 24 26 28 27 25 29 33 31 29 28 23 14 18 13 13 16 19 24 23
29 26 25 24 32 30 37 33 36 35 36 38 36 34 27 27 22 21 20 24 25 27 27 26 27 27 29 31 30 27 20 24 20 21 18 20 21 18 13 17 18 17 19
Wind_Direction_850mb
320 321 323 329 333 338 333 306 291 288 297 239 188 230 208 214 220 223 219 208 208 211 191 171 179 185 192 163 177 163 146 144 149 162 150 86 73 64 80 96 98 95 88
324 326 323 323 337 327 309 320 300 273 288 221 214 237 228 220 218 212 211 203 207 194 186 195 189 181 174 174 170 159 151 149 161 145 112 81 72 77 90 100 96 96 85
336 335 333 357 360 329 328 318 313 302 291 251 253 241 211 210 208 196 208 189 188 187 165 165 178 179 181 173 166 150 153 155 160 129 113 79 77 94 102 98 105 94 82
334 334 354 17 345 334 329 317 312 300 289 256 266 229 215 211 198 190 206 183 184 171 164 174 177 178 182 170 160 154 152 155 151 121 97 76 89 103 104 103 103 94 89
353 32 18 342 352 341 336 339 330 291 295 270 242 203 201 196 193 191 185 188 171 162 169 182 173 186 176 165 157 153 154 160 139 123 87 78 107 108 105 109 104 99 91
24 15 360 348 347 343 360 20 5 325 296 225 201 167 164 174 175 184 182 169 162 165 168 178 169 166 176 178 163 154 157 158 133 113 91 85 102 102 101 96 87 87 82
30 43 21 6 356 5 18 16 7 17 32 138 121 179 144 161 162 164 169 163 160 166 170 159 163 168 184 181 156 159 160 153 134 110 89 79 101 103 105 91 84 84 75
23 20 19 9 7 19 32 18 13 37 129 146 162 133 93 145 147 158 158 134 154 169 164 152 151 148 153 141 148 161 157 143 123 116 82 108 95 103 101 112 101 87 63
26 20 16 16 11 13 20 23 37 48 118 124 127 151 117 109 139 128 133 141 135 118 129 134 148 144 142 138 138 145 151 135 118 96 91 71 61 74 94 83 78 53 48
32 31 19 26 4 8 9 19 61 88 141 117 130 126 142 140 125 102 130 118 130 136 130 134 140 141 144 138 138 143 142 132 117 95 83 66 54 43 30 28 14 3 31
31 46 17 21 19 10 18 11 102 123 134 149 150 138 162 133 121 121 113 131 141 131 133 144 144 137 133 124 143 151 142 130 110 85 76 64 48 41 31 15 12 16 23
17 33 29 28 16 10 12 35 115 136 144 159 141 160 145 144 149 145 136 132 124 123 134 138 143 139 144 136 131 142 155 122 106 89 78 49 44 32 18 9 8 16 7
22 27 22 36 32 26 26 27 95 144 150 134 159 161 165 179 167 157 148 134 121 120 124 133 132 129 130 129 130 150 137 128 122 110 74 36 22 24 21 12 6 3 354
267 35 26 33 28 28 30 40 83 132 169 160 161 153 148 171 167 154 155 150 136 134 129 125 128 131 137 144 146 163 175 163 149 146 342 348 356 22 19 10 16 12 7
277 316 31 34 43 41 49 70 107 101 135 155 157 168 162 159 160 164 160 159 165 144 137 140 136 147 162 156 157 172 169 163 164 223 276 297 326 3 15 12 7 4 359
273 274 26 32 78 59 59 80 105 120 132 141 160 164 155 160 164 165 167 164 165 179 153 165 159 159 163 163 161 177 183 196 217 234 274 304 1 25 15 3 352 342 342
221 258 250 53 96 59 83 136 112 142 133 156 164 165 174 179 171 166 174 174 171 181 180 166 172 167 166 171 176 181 184 192 190 224 23 30 17 12 337 333 338 338 339
197 254 240 154 111 90 98 144 128 126 136 133 160 169 154 150 161 161 171 178 170 188 187 171 174 172 173 172 179 178 172 170 181 80 317 329 346 341 344 342 340 343 357
217 239 222 173 138 120 125 143 137 130 133 138 156 155 176 173 167 172 169 158 163 176 167 176 178 179 176 178 181 175 174 165 181 211 231 312 338 359 345 344 10 27 18
226 204 210 183 165 142 151 162 157 155 151 155 164 172 163 167 170 161 154 161 154 163 174 196 193 184 183 178 185 182 170 173 175 163 226 6 349 357 356 24 22 23 24
221 208 195 185 165 165 162 161 169 167 159 154 158 169 156 144 145 155 168 175 184 200 199 200 191 185 183 184 183 181 178 166 155 146 31 22 27 357 46 33 34 36 35
218 206 179 176 166 161 154 159 157 161 151 142 143 144 149 155 162 166 175 190 212 202 210 186 186 187 185 184 183 186 187 176 171 163 162 149 37 50 49 47 44 36 44
212 189 168 170 164 163 159 157 155 154 153 154 155 161 158 164 175 179 193 194 189 175 159 166 175 176 181 185 187 188 189 191 198 172 182 156 110 72 64 54 45 54 61
192 173 168 173 174 173 165 168 166 166 169 176 174 171 178 176 179 186 189 182 180 170 162 157 160 167 175 177 185 196 186 187 184 182 191 169 146 90 71 56 68 68 63
178 167 173 178 178 183 174 173 169 172 178 179 183 193 188 191 182 185 195 184 173 167 158 158 162 166 168 174 175 181 188 193 189 193 202 199 154 126 99 90 81 69 62
175 180 181 181 183 186 182 182 183 187 191 192 186 185 179 180 197 183 183 180 178 172 168 169 170 172 175 177 181 187 218 207 208 198 193 182 166 157 120 105 90 75 59